Spokane, WA
on Monday, February 11, 2013

Monday
Previous Day Next Day
Daily Summary
 ActualAverageRecord
Temperature
Mean Temperature °F 32°F  
Max Temperature 38°F 39°F 53°F (1992)
Min Temperature 26°F 26°F -14°F (1884)
Degree Days
Heating Degree Days 33 33  
Month to date heating degree days 355 365  
Since 1 July heating degree days 4023 4298  
Cooling Degree Days 0 0  
Month to date cooling degree days 0 0  
Year to date cooling degree days 0 0  
Moisture
Dew Point 27°F   
Average Humidity 78    
Maximum Humidity 92    
Minimum Humidity 64    
Precipitation
Precipitation 0.00 in 0.05 in 0.60 in (1897)
Month to date precipitation 0.04 0.52  
Year to date precipitation 1.67 2.31  
Snow
Snow 0.00 in 0.30 in 5.50 in (1897)
Month to date snowfall 0.3 3.0  
Since 1 July snowfall 38.5 36.5  
Snow Depth 0.00 in   
Wind
Wind Speed 2 mph   
Max Wind Speed 9 mph   
Max Gust Speed 12 mph   
Visibility 10 miles   
Events     

Key: T is trace of precipitation, MM is missing value
Source: NWS Daily Summary
Time(PST)TemperatureDew PointHumidity Pressure Visibility Wind DirectionWind SpeedGust SpeedPrecipitationEvents Conditions
12:29 AM 26.6°F 24.8°F 93% 30.16 in 10.0 miles Calm Calm - N/A   Mostly Cloudy
12:53 AM 27.0°F 25.0°F 92% 30.24 in 10.0 miles Calm Calm - N/A   Mostly Cloudy
1:53 AM 27.0°F 25.0°F 92% 30.23 in 10.0 miles Calm Calm - N/A   Overcast
2:53 AM 28.0°F 26.1°F 92% 30.23 in 10.0 miles Calm Calm - N/A   Overcast
3:53 AM 28.4°F 26.6°F 93% 30.16 in 10.0 miles Calm Calm - N/A   Overcast
4:53 AM 28.9°F 26.1°F 89% 30.22 in 8.0 miles ESE 3.5 mph - N/A   Overcast
5:53 AM 28.0°F 26.1°F 92% 30.22 in 10.0 miles Calm Calm - N/A   Mostly Cloudy
6:53 AM 28.0°F 25.0°F 88% 30.22 in 10.0 miles Calm Calm - N/A   Mostly Cloudy
7:53 AM 28.9°F 26.1°F 89% 30.24 in 9.0 miles Calm Calm - N/A   Mostly Cloudy
8:53 AM 30.0°F 27.0°F 88% 30.25 in 9.0 miles Calm Calm - N/A   Mostly Cloudy
9:51 AM 33.8°F 28.4°F 81% 30.17 in 10.0 miles ESE 5.8 mph - N/A   Mostly Cloudy
9:53 AM 33.1°F 28.0°F 82% 30.25 in 10.0 miles ESE 5.8 mph - N/A   Mostly Cloudy
10:53 AM 35.1°F 28.0°F 76% 30.24 in 10.0 miles South 4.6 mph - N/A   Mostly Cloudy
11:53 AM 37.0°F 27.0°F 67% 30.22 in 10.0 miles SSE 5.8 mph - N/A   Scattered Clouds
12:47 PM 37.4°F 28.4°F 70% 30.16 in 10.0 miles Calm Calm - N/A   Mostly Cloudy
12:53 PM 37.0°F 28.0°F 70% 30.22 in 10.0 miles South 6.9 mph - N/A   Mostly Cloudy
1:53 PM 37.9°F 28.0°F 68% 30.20 in 10.0 miles South 4.6 mph - N/A   Overcast
2:53 PM 37.0°F 28.9°F 73% 30.21 in 10.0 miles SW 8.1 mph - N/A   Overcast
3:53 PM 36.0°F 28.9°F 76% 30.22 in 10.0 miles West 3.5 mph - N/A   Overcast
4:53 PM 36.0°F 28.9°F 76% 30.22 in 10.0 miles SW 4.6 mph - N/A   Overcast
5:53 PM 35.1°F 28.9°F 78% 30.23 in 10.0 miles WSW 3.5 mph - N/A   Overcast
6:53 PM 35.1°F 28.9°F 78% 30.23 in 10.0 miles Calm Calm - N/A   Overcast
7:53 PM 35.1°F 28.9°F 78% 30.23 in 10.0 miles SSW 3.5 mph - N/A   Overcast
8:53 PM 34.0°F 28.9°F 82% 30.23 in 10.0 miles Calm Calm - N/A   Overcast
9:53 PM 34.0°F 28.9°F 82% 30.23 in 10.0 miles Calm Calm - N/A   Overcast
10:53 PM 34.0°F 28.9°F 82% 30.23 in 10.0 miles Calm Calm - N/A   Overcast
11:53 PM 34.0°F 28.9°F 82% 30.23 in 10.0 miles Calm Calm - N/A   Overcast
Moon Phase
Feb. 11 Feb. 17 Feb. 25 Mar. 04 Mar. 11
Sunrise:07:01 AM (PST) Moon Rise:07:18 AM (PST)2/11
Sunset:05:07 PM (PST) Moon Set:07:22 PM (PST)2/11

Copyright © 2014 The Weather Underground, Inc.